Flag for U.S.A. Weather past 2 weeks in Canton, Ohio, U.S.A.

Now
43 °F

Light rain. Mostly cloudy.


Feels Like: 37 °F
Forecast: 36 / 43 °F
Wind: 10 mph from Northwest

Location: Akron-Canton Regional Airport

Current Time: Mar 26, 2015 at 4:07:12 PM

Latest Report: Mar 26, 2015 at 2:51 PM


Visibility: 8 mi

Pressure: 29.81 "Hg

Humidity: 82%

Dew point: 38 °F

Location of CantonLocation

Historic Weather in Canton — Graph

°F

Canton temperature yesterday

Maximum temperature yesterday: 62 °F (at 3:51 PM)
Minimum temperature yesterday: 37 °F (at 1:51 AM)
Average temperature yesterday: 47 °F

Past Weeks' High & Low Weather Summary

 TemperatureHumidityPressure
High63 °F (Mar 16, 2:51 PM)93% (Mar 14, 12:51 AM)30.62 "Hg (Mar 14, 12:51 AM)
Low19 °F (Mar 23, 4:51 AM)25% (Mar 12, 3:51 PM)29.71 "Hg (Mar 17, 3:51 AM)
Average40 °F61%30.16 "Hg
* Reported Mar 11 2:51 PM — Mar 26 2:51 PM, Canton, Weather by CustomWeather, © 2015

Note: Actual official high and low records may vary slightly from our data, if they occured in-between our weather recording intervals... More about our weather records

Advertising

Canton weather history for previous 24 hours

 ConditionsComfort  
Time TempWeatherWind HumidityBarometerVisibility
2:51 PM
Thu, Mar 26
43 °FLight rain. Mostly cloudy.10 mph82%29.81 "Hg8 mi
1:51 PM43 °FFog.8 mph86%29.82 "Hg6 mi
12:51 PM43 °FLight rain. Mostly cloudy.9 mph82%29.82 "Hg5 mi
11:51 AM43 °FLight rain. Fog.7 mph86%29.82 "Hg3 mi
10:51 AM42 °FLight rain. Fog.9 mph89%29.84 "Hg2 mi
9:51 AM43 °FLight rain. Fog.12 mph86%29.82 "Hg1 mi
8:51 AM43 °FRain. Fog.12 mph89%29.83 "Hg1 mi
7:51 AM43 °FLight rain. Fog.8 mph89%29.85 "Hg1 mi
6:51 AM43 °FRain. Fog.3 mph89%29.88 "Hg2 mi
5:51 AM43 °FLight rain. Fog.5 mph89%29.91 "Hg3 mi
4:51 AM44 °FFog.3 mph89%29.90 "Hg3 mi
3:51 AM45 °FFog.13 mph86%29.90 "Hg4 mi
2:51 AM44 °FFog.3 mph89%29.97 "Hg4 mi
1:51 AM43 °FFog.3 mph89%29.99 "Hg4 mi
12:51 AM45 °FFog.6 mph86%29.99 "Hg6 mi
11:51 PM
Wed, Mar 25
47 °FPassing clouds.6 mph80%30.00 "Hg7 mi
10:51 PM45 °FPassing clouds.7 mph80%30.01 "Hg8 mi
9:51 PM47 °FPassing clouds.7 mph80%30.03 "Hg9 mi
8:51 PM51 °FPassing clouds.6 mph71%30.03 "Hg9 mi
7:51 PM53 °FScattered clouds.9 mph69%30.03 "Hg9 mi
6:51 PM56 °FScattered clouds.15 mph65%30.03 "Hg8 mi
5:51 PM58 °FPartly sunny.16 mph62%30.01 "Hg8 mi
4:51 PM61 °FBroken clouds.25 mph58%29.98 "Hg10 mi
Weather by CustomWeather, © 2015

See weather overviewHow to use our weather pages